White Mountain, AK

1:41 AM AKST on January 24, 2017 (GMT -0900)
White Mountain

Weather History for PAWM - October, 2012

Change the Weather History Date:

Thursday, October 25, 2012

  Actual Average (PAOM) Record (PAOM)
Temperature  
Mean Temperature 26 °F -  
Max Temperature 30 °F 29 °F 45 °F (1937)
Min Temperature 23 °F 19 °F -5 °F (1996)
Degree Days  
Heating Degree Days 38    
Moisture  
Dew Point 22 °F    
Average Humidity 81    
Maximum Humidity 88    
Minimum Humidity 69    
Precipitation  
Precipitation 0.00 in - - ()
Sea Level Pressure  
Sea Level Pressure 30.61 in    
Wind  
Wind Speed 3 mph ()    
Max Wind Speed 7 mph    
Max Gust Speed -    
Visibility 9.3 miles    
Events      
Averages and records for this station are not official NWS values.
T = Trace of Precipitation, MM = Missing Value Source: Averaged Metar Reports

Daily Weather History Graph

Daily Weather History Graph

Search for Another Location

Airport or City:

Trip Planner

Search our weather history database for the weather conditions in past years. The results will help you decide how hot, cold, wet, or windy it might be!

Date:

Astronomy

Oct. 25, 2012 Rise Set
Actual Time 10:19 AM AKDT 6:54 PM AKDT
Civil Twilight 9:27 AM AKDT 7:46 PM AKDT
Nautical Twilight 8:30 AM AKDT 8:43 PM AKDT
Astronomical Twilight 7:33 AM AKDT 9:39 PM AKDT
Moon 5:48 PM AKDT (10/25) 5:15 AM AKDT (10/25)
Length of Visible Light 10h 19m
Length of Day
8h 34m
Waxing Gibbous, 85% of the Moon is Illuminated
Oct 25
Waxing Gibbous
Oct 29
Full
Nov 6
Last Quarter
Nov 13
New
Nov 20
First Quarter

Hourly Weather History & Observations

Time (AKDT) Temp. Windchill Dew Point Humidity Pressure Visibility Wind Dir Wind Speed Gust Speed Precip Events Conditions
12:58 AM 27.0 °F 21.6 °F 19.9 °F 75% 30.66 in 10.0 mi North 4.6 mph - N/A   Clear
1:58 AM 28.0 °F 21.7 °F 19.0 °F 69% 30.66 in 10.0 mi NNW 5.8 mph - N/A   Clear
2:58 AM 26.1 °F - 19.0 °F 75% 30.66 in 10.0 mi Calm Calm - N/A   Clear
4:58 AM 23.0 °F - 18.0 °F 81% 30.64 in 10.0 mi Calm Calm - N/A   Clear
5:58 AM 24.1 °F 16.0 °F 19.0 °F 81% 30.64 in 10.0 mi North 6.9 mph - N/A   Clear
6:58 AM 27.0 °F 23.0 °F 19.0 °F 72% 30.62 in 10.0 mi North 3.5 mph - N/A   Clear
7:58 AM 25.0 °F 20.7 °F 18.0 °F 75% 30.63 in 10.0 mi NNW 3.5 mph - N/A   Clear
8:58 AM 23.0 °F 17.0 °F 18.0 °F 81% 30.63 in 10.0 mi NNW 4.6 mph - N/A   Clear
9:58 AM 26.1 °F 20.5 °F 19.0 °F 75% 30.63 in 10.0 mi North 4.6 mph - N/A   Overcast
10:58 AM 25.0 °F - 19.0 °F 78% 30.63 in 9.0 mi Calm Calm - N/A   Mostly Cloudy
11:58 AM 25.0 °F 19.3 °F 19.9 °F 81% 30.62 in 9.0 mi SSE 4.6 mph - N/A   Overcast
12:58 PM 27.0 °F 23.0 °F 21.9 °F 81% 30.63 in 8.0 mi NE 3.5 mph - N/A   Overcast
1:58 PM 30.0 °F - 24.1 °F 79% 30.63 in 8.0 mi Calm Calm - N/A   Mostly Cloudy
2:58 PM 28.9 °F 25.2 °F 24.1 °F 82% 30.61 in 9.0 mi SSE 3.5 mph - N/A   Clear
3:58 PM 30.9 °F - 26.1 °F 82% 30.61 in 8.0 mi Calm Calm - N/A   Partly Cloudy
4:58 PM 30.0 °F - 27.0 °F 88% 30.60 in 8.0 mi Calm Calm - N/A   Overcast
5:58 PM 30.9 °F - 27.0 °F 85% 30.58 in 9.0 mi Calm Calm - N/A   Overcast
6:58 PM 30.0 °F 26.5 °F 27.0 °F 88% 30.58 in 8.0 mi SSE 3.5 mph - N/A   Partly Cloudy
8:58 PM 30.0 °F 26.5 °F 27.0 °F 88% 30.56 in 10.0 mi SSE 3.5 mph - N/A   Overcast
9:58 PM 30.0 °F - 25.0 °F 82% 30.56 in 10.0 mi Calm Calm - N/A   Mostly Cloudy
10:58 PM 30.0 °F 25.2 °F 27.0 °F 88% 30.56 in 10.0 mi WSW 4.6 mph - N/A   Overcast
11:58 PM 30.0 °F - 27.0 °F 88% 30.55 in 9.0 mi Calm Calm - N/A   Overcast